Hourly Data Report for September 25, 2017

All times are specified in Local Standard Time (LST). Add 1 hour to adjust for Daylight Saving Time where and when it is observed.

ALERT CLIMATE
NUNAVUT

82°30'00.000" N
62°20'00.000" W
65.40 m
2400305
71355
ZLT

Download Data

Hourly Data (September 2017)
Hourly Data Report for September 25, 2017
Temp Definition
°C
Dew Point Temp Definition
°C
Rel Hum Definition
%
Wind Dir Definition
10's deg

Wind Spd Definition
km/h
Visibility Definition
km
Stn Press Definition
kPa
Hmdx Definition


Wind Chill Definition


Weather Definition


TIME
00:00 -10.7 -11.5 94 5 8   100.80   -15 LegendNANA
01:00 -10.7 -11.5 93 1 4   100.80   -13 LegendNANA
02:00 -10.7 -11.6 93 1 9   100.75   -16 LegendNANA
03:00 -11.0 -11.9 93 35 12   100.71   -17 LegendNANA
04:00 -11.2 -12.1 93 33 13   100.69   -18 LegendNANA
05:00 -11.5 -12.4 93 33 10   100.69   -17 LegendNANA
06:00 -11.9 -12.9 92 32 7   100.69   -16 LegendNANA
07:00 -11.8 -12.8 93 33 5   100.67   -15 LegendNANA
08:00 -11.8 -12.7 93 1 5   100.67   -15 LegendNANA
09:00 -12.9 -14.0 91 31 3   100.67   -15 LegendNANA
10:00 -14.1 -15.3 91 28 3   100.65   -16 LegendNANA
11:00 -14.0 -15.2 91 29 1   100.64   -15 LegendNANA
12:00 -14.2 -15.4 91   0   100.66     LegendNANA
13:00 -13.8 -14.9 91   0   100.69     LegendNANA
14:00 -13.0 -14.1 91   0   100.73     LegendNANA
15:00 -13.3 -14.5 91   0   100.77     LegendNANA
16:00 -15.8 -17.3 89   0   100.80     LegendNANA
17:00 -17.0 -18.5 88   0   100.85     LegendNANA
18:00 -16.6 -18.1 89   0   100.89     LegendNANA
19:00 -16.7 -18.1 88 29 5   100.90   -21 LegendNANA
20:00 -16.0 -17.2 90   0   100.93     LegendNANA
21:00 -15.5 -16.8 90   0   100.94     LegendNANA
22:00 -15.7 -17.0 90   0   100.92     LegendNANA
23:00 -15.3 -16.5 91   0   100.90     LegendNANA

Notes on Data Quality.

Legend

  • E = Estimated
  • M = Missing
  • NA = Not Available
  • ‡ = Partner data that is not subject to review by the National Climate Archives
Date modified: